Time,TemperatureF,DewpointF,PressureIn,WindDirection,WindDirectionDegrees,WindSpeedMPH,WindSpeedGustMPH,Humidity,HourlyPrecipIn,Conditions,Clouds,dailyrainin,SoftwareType,DateUTC
2013-09-17 00:00:00,75.4,-31.6,29.75,West,270,0.0,-999.0,1,-99.99,,,0.00,Acu-Link.com,2013-09-17 05:00:00,
2013-09-17 00:15:00,74.8,-31.9,29.75,WNW,292,0.0,-999.0,1,-99.99,,,0.00,Acu-Link.com,2013-09-17 05:15:00,
2013-09-17 00:30:00,74.7,-32.0,29.74,West,270,0.0,-999.0,1,-99.99,,,0.00,Acu-Link.com,2013-09-17 05:30:00,
2013-09-17 00:46:00,74.3,-32.2,29.74,WNW,292,0.0,-999.0,1,-99.99,,,0.00,Acu-Link.com,2013-09-17 05:46:00,
2013-09-17 01:01:00,73.9,-32.5,29.74,WNW,292,0.0,-999.0,1,-99.99,,,0.00,Acu-Link.com,2013-09-17 06:01:00,
2013-09-17 01:16:00,73.6,-32.7,29.74,West,270,0.0,-999.0,1,-99.99,,,0.00,Acu-Link.com,2013-09-17 06:16:00,
2013-09-17 01:32:00,73.4,-32.8,29.74,West,270,0.0,-999.0,1,-99.99,,,0.00,Acu-Link.com,2013-09-17 06:32:00,
2013-09-17 01:47:00,73.0,-33.0,29.74,NW,315,0.0,-999.0,1,-99.99,,,0.00,Acu-Link.com,2013-09-17 06:47:00,
2013-09-17 02:02:00,73.4,-32.8,29.74,WNW,292,0.0,-999.0,1,-99.99,,,0.00,Acu-Link.com,2013-09-17 07:02:00,
2013-09-17 02:17:00,73.2,-32.9,29.74,NNW,337,0.0,-999.0,1,-99.99,,,0.00,Acu-Link.com,2013-09-17 07:17:00,
2013-09-17 02:33:00,72.5,-33.3,29.74,NW,315,0.0,-999.0,1,-99.99,,,0.00,Acu-Link.com,2013-09-17 07:33:00,
2013-09-17 02:48:00,72.7,-33.2,29.74,WNW,292,0.0,-999.0,1,-99.99,,,0.00,Acu-Link.com,2013-09-17 07:48:00,
2013-09-17 03:03:00,72.3,-33.4,29.73,NW,315,0.0,-999.0,1,-99.99,,,0.00,Acu-Link.com,2013-09-17 08:03:00,
2013-09-17 03:19:00,72.0,-33.6,29.73,WNW,292,0.0,-999.0,1,-99.99,,,0.00,Acu-Link.com,2013-09-17 08:19:00,
2013-09-17 03:34:00,71.6,-33.9,29.73,West,270,0.0,-999.0,1,-99.99,,,0.00,Acu-Link.com,2013-09-17 08:34:00,
2013-09-17 03:49:00,71.4,-34.0,29.72,WNW,292,0.0,-999.0,1,-99.99,,,0.00,Acu-Link.com,2013-09-17 08:49:00,
2013-09-17 04:04:00,71.2,-34.1,29.72,NW,315,0.0,-999.0,1,-99.99,,,0.00,Acu-Link.com,2013-09-17 09:04:00,
2013-09-17 04:20:00,71.6,-33.9,29.73,WNW,292,0.0,-999.0,1,-99.99,,,0.00,Acu-Link.com,2013-09-17 09:20:00,
2013-09-17 04:35:00,71.2,-34.1,29.72,WNW,292,0.0,-999.0,1,-99.99,,,0.00,Acu-Link.com,2013-09-17 09:35:00,
2013-09-17 04:50:00,71.2,-34.1,29.72,WNW,292,0.0,-999.0,1,-99.99,,,0.00,Acu-Link.com,2013-09-17 09:50:00,
2013-09-17 05:05:00,72.5,-33.3,29.72,WNW,292,0.0,-999.0,1,-99.99,,,0.00,Acu-Link.com,2013-09-17 10:05:00,
2013-09-17 05:21:00,71.1,-34.2,29.72,NW,315,0.0,-999.0,1,-99.99,,,0.00,Acu-Link.com,2013-09-17 10:21:00,
2013-09-17 05:36:00,71.1,-34.2,29.72,WNW,292,0.0,-999.0,1,-99.99,,,0.00,Acu-Link.com,2013-09-17 10:36:00,
2013-09-17 05:51:00,71.1,-34.2,29.73,WNW,292,0.0,-999.0,1,-99.99,,,0.00,Acu-Link.com,2013-09-17 10:51:00,
2013-09-17 06:07:00,71.1,-34.2,29.74,WNW,292,0.0,-999.0,1,-99.99,,,0.00,Acu-Link.com,2013-09-17 11:07:00,
2013-09-17 06:22:00,70.9,-34.3,29.74,NW,315,0.0,-999.0,1,-99.99,,,0.00,Acu-Link.com,2013-09-17 11:22:00,
2013-09-17 06:37:00,71.1,-34.2,29.75,SSE,157,0.0,-999.0,1,-99.99,,,0.00,Acu-Link.com,2013-09-17 11:37:00,
2013-09-17 06:53:00,70.7,-34.4,29.75,ESE,112,0.0,-999.0,1,-99.99,,,0.00,Acu-Link.com,2013-09-17 11:53:00,
2013-09-17 07:08:00,70.5,-34.5,29.75,WSW,247,0.0,-999.0,1,-99.99,,,0.00,Acu-Link.com,2013-09-17 12:08:00,
2013-09-17 07:23:00,70.7,-34.4,29.75,West,270,0.0,-999.0,1,-99.99,,,0.00,Acu-Link.com,2013-09-17 12:23:00,
2013-09-17 07:38:00,73.6,59.8,29.75,North,0,0.0,-999.0,62,-99.99,,,0.00,Acu-Link.com,2013-09-17 12:38:00,
2013-09-17 07:54:00,76.3,-31.0,29.76,NNE,22,2.7,-999.0,1,-99.99,,,0.00,Acu-Link.com,2013-09-17 12:54:00,
2013-09-17 08:09:00,78.8,-29.6,29.76,North,0,2.7,-999.0,1,-99.99,,,0.00,Acu-Link.com,2013-09-17 13:09:00,
2013-09-17 08:24:00,81.5,-27.9,29.76,NNE,22,4.2,-999.0,1,-99.99,,,0.00,Acu-Link.com,2013-09-17 13:24:00,
2013-09-17 08:39:00,84.7,-26.1,29.76,NNE,22,2.7,-999.0,1,-99.99,,,0.00,Acu-Link.com,2013-09-17 13:39:00,
2013-09-17 08:55:00,86.7,-24.9,29.76,NE,45,2.2,-999.0,1,-99.99,,,0.00,Acu-Link.com,2013-09-17 13:55:00,
2013-09-17 09:10:00,88.3,-23.9,29.76,NE,45,4.2,-999.0,1,-99.99,,,0.00,Acu-Link.com,2013-09-17 14:10:00,
2013-09-17 09:25:00,88.9,-23.6,29.76,NNE,22,5.3,-999.0,1,-99.99,,,0.00,Acu-Link.com,2013-09-17 14:25:00,
2013-09-17 09:40:00,89.8,-23.0,29.77,NNE,22,5.8,-999.0,1,-99.99,,,0.00,Acu-Link.com,2013-09-17 14:40:00,
2013-09-17 09:56:00,90.1,-22.9,29.76,ENE,67,7.3,-999.0,1,-99.99,,,0.00,Acu-Link.com,2013-09-17 14:56:00,
2013-09-17 10:11:00,91.8,-21.9,29.76,NE,45,7.3,-999.0,1,-99.99,,,0.00,Acu-Link.com,2013-09-17 15:11:00,
2013-09-17 10:26:00,91.9,-21.8,29.76,NNE,22,4.7,-999.0,1,-99.99,,,0.00,Acu-Link.com,2013-09-17 15:26:00,
2013-09-17 10:41:00,94.1,-20.5,29.76,NE,45,5.8,-999.0,1,-99.99,,,0.00,Acu-Link.com,2013-09-17 15:41:00,
2013-09-17 10:56:00,94.5,-20.3,29.76,ENE,67,4.7,-999.0,1,-99.99,,,0.00,Acu-Link.com,2013-09-17 15:56:00,
2013-09-17 11:11:00,96.1,-19.3,29.75,ENE,67,2.7,-999.0,1,-99.99,,,0.00,Acu-Link.com,2013-09-17 16:11:00,
2013-09-17 11:27:00,92.5,-21.4,29.75,South,180,2.2,-999.0,1,-99.99,,,0.00,Acu-Link.com,2013-09-17 16:27:00,
2013-09-17 11:42:00,93.7,-20.7,29.74,ESE,112,5.8,-999.0,1,-99.99,,,0.00,Acu-Link.com,2013-09-17 16:42:00,
2013-09-17 11:57:00,93.6,-20.8,29.74,East,90,4.7,-999.0,1,-99.99,,,0.00,Acu-Link.com,2013-09-17 16:57:00,
2013-09-17 12:12:00,97.5,-18.5,29.74,East,90,9.9,-999.0,1,-99.99,,,0.00,Acu-Link.com,2013-09-17 17:12:00,
2013-09-17 12:27:00,96.4,-19.2,29.73,NNE,22,7.3,-999.0,1,-99.99,,,0.00,Acu-Link.com,2013-09-17 17:27:00,
2013-09-17 12:43:00,99.0,-17.6,29.72,NNE,22,8.3,-999.0,1,-99.99,,,0.00,Acu-Link.com,2013-09-17 17:43:00,
2013-09-17 12:58:00,97.7,-18.4,29.71,East,90,6.3,-999.0,1,-99.99,,,0.00,Acu-Link.com,2013-09-17 17:58:00,
2013-09-17 13:13:00,98.8,-17.8,29.71,ENE,67,10.4,-999.0,1,-99.99,,,0.00,Acu-Link.com,2013-09-17 18:13:00,
2013-09-17 13:28:00,98.1,-18.2,29.70,South,180,3.7,-999.0,1,-99.99,,,0.00,Acu-Link.com,2013-09-17 18:28:00,
2013-09-17 13:44:00,98.8,-17.8,29.69,ENE,67,7.8,-999.0,1,-99.99,,,0.00,Acu-Link.com,2013-09-17 18:44:00,
2013-09-17 13:59:00,99.0,-17.6,29.69,ENE,67,5.3,-999.0,1,-99.99,,,0.00,Acu-Link.com,2013-09-17 18:59:00,
2013-09-17 14:14:00,98.8,-17.8,29.68,ENE,67,4.7,-999.0,1,-99.99,,,0.00,Acu-Link.com,2013-09-17 19:14:00,
2013-09-17 14:29:00,99.1,-17.6,29.68,ENE,67,6.3,-999.0,1,-99.99,,,0.00,Acu-Link.com,2013-09-17 19:29:00,
2013-09-17 14:45:00,98.2,-18.1,29.68,SSE,157,5.8,-999.0,1,-99.99,,,0.00,Acu-Link.com,2013-09-17 19:45:00,
2013-09-17 15:00:00,98.6,-17.9,29.68,East,90,7.8,-999.0,1,-99.99,,,0.00,Acu-Link.com,2013-09-17 20:00:00,
2013-09-17 15:15:00,99.1,-17.6,29.67,ENE,67,7.3,-999.0,1,-99.99,,,0.00,Acu-Link.com,2013-09-17 20:15:00,
2013-09-17 15:30:00,96.8,-18.9,29.66,East,90,8.3,-999.0,1,-99.99,,,0.00,Acu-Link.com,2013-09-17 20:30:00,
2013-09-17 15:45:00,99.0,-17.6,29.66,East,90,3.2,-999.0,1,-99.99,,,0.00,Acu-Link.com,2013-09-17 20:45:00,
2013-09-17 16:00:00,99.1,-17.6,29.65,ENE,67,6.8,-999.0,1,-99.99,,,0.00,Acu-Link.com,2013-09-17 21:00:00,
2013-09-17 16:15:00,98.1,-18.2,29.65,East,90,8.9,-999.0,1,-99.99,,,0.00,Acu-Link.com,2013-09-17 21:15:00,
2013-09-17 16:31:00,98.4,-18.0,29.65,ENE,67,5.8,-999.0,1,-99.99,,,0.00,Acu-Link.com,2013-09-17 21:31:00,
2013-09-17 16:46:00,94.8,-20.1,29.64,East,90,4.7,-999.0,1,-99.99,,,0.00,Acu-Link.com,2013-09-17 21:46:00,
2013-09-17 17:01:00,94.6,-20.2,29.64,ESE,112,6.3,-999.0,1,-99.99,,,0.00,Acu-Link.com,2013-09-17 22:01:00,
2013-09-17 17:16:00,94.8,-20.1,29.64,ESE,112,3.7,-999.0,1,-99.99,,,0.00,Acu-Link.com,2013-09-17 22:16:00,
2013-09-17 17:32:00,94.1,-20.5,29.64,NE,45,5.3,-999.0,1,-99.99,,,0.00,Acu-Link.com,2013-09-17 22:32:00,
2013-09-17 17:47:00,92.5,-21.4,29.64,East,90,5.3,-999.0,1,-99.99,,,0.00,Acu-Link.com,2013-09-17 22:47:00,
2013-09-17 18:02:00,92.3,-21.6,29.64,East,90,4.7,-999.0,1,-99.99,,,0.00,Acu-Link.com,2013-09-17 23:02:00,
2013-09-17 18:18:00,91.6,-22.0,29.65,ESE,112,3.7,-999.0,1,-99.99,,,0.00,Acu-Link.com,2013-09-17 23:18:00,
2013-09-17 18:33:00,90.3,-22.7,29.64,East,90,2.7,-999.0,1,-99.99,,,0.00,Acu-Link.com,2013-09-17 23:33:00,
2013-09-17 18:48:00,88.5,-23.8,29.64,South,180,1.7,-999.0,1,-99.99,,,0.00,Acu-Link.com,2013-09-17 23:48:00,
2013-09-17 19:03:00,86.4,-25.0,29.65,South,180,0.0,-999.0,1,-99.99,,,0.00,Acu-Link.com,2013-09-18 00:03:00,
2013-09-17 19:19:00,84.4,-26.2,29.65,SSW,202,0.0,-999.0,1,-99.99,,,0.00,Acu-Link.com,2013-09-18 00:19:00,
2013-09-17 19:34:00,83.1,-27.0,29.65,SW,225,0.0,-999.0,1,-99.99,,,0.00,Acu-Link.com,2013-09-18 00:34:00,
2013-09-17 19:49:00,82.0,-27.7,29.65,NW,315,0.0,-999.0,1,-99.99,,,0.00,Acu-Link.com,2013-09-18 00:49:00,
2013-09-17 20:04:00,81.7,-27.8,29.65,WNW,292,0.0,-999.0,1,-99.99,,,0.00,Acu-Link.com,2013-09-18 01:04:00,
2013-09-17 20:19:00,80.6,-28.5,29.66,SW,225,0.0,-999.0,1,-99.99,,,0.00,Acu-Link.com,2013-09-18 01:19:00,
2013-09-17 20:35:00,80.4,-28.6,29.67,WSW,247,0.0,-999.0,1,-99.99,,,0.00,Acu-Link.com,2013-09-18 01:35:00,
2013-09-17 20:50:00,80.2,-28.7,29.68,South,180,3.2,-999.0,1,-99.99,,,0.00,Acu-Link.com,2013-09-18 01:50:00,
2013-09-17 21:05:00,80.8,-28.4,29.69,SSE,157,2.7,-999.0,1,-99.99,,,0.00,Acu-Link.com,2013-09-18 02:05:00,
2013-09-17 21:20:00,80.8,-28.4,29.70,NW,315,0.0,-999.0,1,-99.99,,,0.00,Acu-Link.com,2013-09-18 02:20:00,
2013-09-17 21:36:00,80.6,-28.5,29.71,NNW,337,2.2,-999.0,1,-99.99,,,0.00,Acu-Link.com,2013-09-18 02:36:00,
2013-09-17 21:51:00,80.4,-28.6,29.70,ENE,67,0.0,-999.0,1,-99.99,,,0.00,Acu-Link.com,2013-09-18 02:51:00,
2013-09-17 22:06:00,79.9,-28.9,29.71,ENE,67,0.0,-999.0,1,-99.99,,,0.00,Acu-Link.com,2013-09-18 03:06:00,
2013-09-17 22:22:00,79.3,-29.3,29.71,SW,225,0.0,-999.0,1,-99.99,,,0.00,Acu-Link.com,2013-09-18 03:22:00,
2013-09-17 22:37:00,79.0,-29.4,29.70,South,180,0.0,-999.0,1,-99.99,,,0.00,Acu-Link.com,2013-09-18 03:37:00,
2013-09-17 22:52:00,78.3,-29.9,29.70,West,270,0.0,-999.0,1,-99.99,,,0.00,Acu-Link.com,2013-09-18 03:52:00,
2013-09-17 23:07:00,77.4,-30.4,29.70,WSW,247,0.0,-999.0,1,-99.99,,,0.00,Acu-Link.com,2013-09-18 04:07:00,
2013-09-17 23:23:00,77.0,-30.6,29.70,North,0,0.0,-999.0,1,-99.99,,,0.00,Acu-Link.com,2013-09-18 04:23:00,
2013-09-17 23:38:00,76.3,-31.0,29.69,ESE,112,0.0,-999.0,1,-99.99,,,0.00,Acu-Link.com,2013-09-18 04:38:00,
2013-09-17 23:53:00,75.9,-31.3,29.70,WSW,247,0.0,-999.0,1,-99.99,,,0.00,Acu-Link.com,2013-09-18 04:53:00,